Погода в Иркире

Россия / Сахалинская область     51°14′49″N   142°40′26″E
темп.,
°C
ветер,
м/с
пор.,
м/с
влажн.,
%
обл.,
%
осадки,
мм/ч
давл.,
гПа
погр.,
м
23 января, сб
сб2323:00−22зсз2694100 0.2 1018339
02:00−26зсз128686 0.0 102020
05:00−26ююз229577 0.0 102127
08:00−26ююз22100100 0.0 102225
11:00−24ююз23100100 0.1 1023149
14:00−20юз3784100 0.0 1022646
17:00−21зюз388464 0.0 1023511
20:00−26ююз22910 0.0 102421
24 января, вс
вс2423:00−27ю23900 0.0 102437
02:00−27ю23890 0.0 102538
05:00−26ююз238519 0.0 102434
08:00−22ююз2585100 0.0 1024150
11:00−19ююз2595100 0.0 1024224
14:00−16юз2389100 0.1 1024507
17:00−16з2391100 0.1 1025333
20:00−23юз119953 0.0 102820
25 января, пн
пн2523:00−24ююз119851 0.0 102820
02:00−25юз129663 0.0 102920
05:00−25ююз119275 0.0 103020
08:00−27зюз228833 0.0 103220
11:00−23зсз287617 0.0 1033531
14:00−20зсз37700 0.0 1033945
17:00−22сз24790 0.0 1034343
20:00−28з11820 0.0 103619
26 января, вт
вт2623:00−30ю11810 0.0 103619
02:00−30ю118515 0.0 103619
05:00−30юв118541 0.0 103519
08:00−27в118167 0.0 103419
11:00−24в117883 0.0 1032113
14:00−19вюв1274100 0.0 1029304
17:00−18в1295100 0.3 1026227
20:00−20в1199100 0.5 102470
27 января, ср
ср2723:00−19юв0198100 1.1 102195
02:00−17ююв1298100 1.0 1018115
05:00−17св1298100 1.9 101563
08:00−18с1298100 1.2 101186
11:00−17ссз1296100 3.4 1008129
14:00−14з2495100 2.1 1003322
17:00−17з4896100 4.8 1000605
20:00−19з51096100 2.8 999827